Back to catalog

DELTA 1 DEB

AlivePO
NORAD 42569·DEBRIS·🇺🇸 United States

Launched Jul 23, 1972 from Vandenberg Space Force Base

Loading…

Next Passes (next 24 hours)

TLE

FreshSource: Space-Track

Epoch: Sep 13, 2026, 18:11 UTC

1 42569U 72058KC  26256.75818532  .00002800  00000-0  32902-2 0  9996
2 42569  98.8961   6.0218 0347209 163.5079 197.7695 13.46063679613629

Track DELTA 1 DEB in real time with AllMySat

Download on the App Store